Home > Weather > Santiago > Past weeks

Flag for Chile Weather for the Past 2 Weeks in Santiago, Chile

Now
90 °F

Passing clouds.


Feels Like: 86 °F
Forecast: N/A
Wind: 14 mph from Southwest

Location: Pudahuel

Current Time: Feb 14, 2016 at 6:37:47 PM

Latest Report: Feb 14, 2016 at 6:00 PM


Visibility: N/A

Pressure: 29.83 "Hg (27.97 "Hg at 576m altitude)

Humidity: 16%

Dew point: 37 °F

Location of SantiagoLocation

Historic Weather in Santiago — Graph

°F

Santiago Temperature Yesterday

Maximum temperature yesterday: 88 °F (at 4:00 PM)
Minimum temperature yesterday: 57 °F (at 6:00 AM)
Average temperature yesterday: 71 °F

High & Low Weather Summary for the Past Weeks

 TemperatureHumidityPressure
High93 °F (Jan 30, 5:00 PM)94% (Feb 1, 7:00 AM)30.01 "Hg (Feb 1, 7:00 AM)
Low55 °F (Feb 5, 8:00 AM)17% (Jan 30, 5:00 PM)29.83 "Hg (Feb 14, 5:00 PM)
Average71 °F56%29.93 "Hg
* Reported Jan 30 5:00 PM — Feb 14 5:00 PM, Santiago, Weather by CustomWeather, © 2016

Note: Actual official high and low records may vary slightly from our data, if they occured in-between our weather recording intervals... More about our weather records

Advertising

Santiago Weather History for the Previous 24 Hours

 ConditionsComfort  
Time TempWeatherWind HumidityBarometerVisibility
5:00 PM
Sun, Feb 14
90 °FPassing clouds.14 mph18%29.83 "HgN/A
4:00 PM90 °FSunny.15 mph20%29.86 "Hg10 mi
3:00 PM88 °FPassing clouds.12 mph22%29.86 "HgN/A
2:00 PM84 °FSunny.9 mph25%29.89 "Hg10 mi
1:00 PM81 °FPassing clouds.7 mph30%29.92 "HgN/A
12:00 PM77 °FPassing clouds.5 mph34%29.92 "HgN/A
11:00 AM73 °FSunny.2 mph38%29.92 "Hg10 mi
10:00 AM70 °FPassing clouds.3 mph46%29.95 "HgN/A
9:00 AM64 °FSunny.7 mph56%29.95 "Hg10 mi
7:00 AM61 °FClear.3 mph63%29.92 "Hg10 mi
6:00 AM61 °FClear.2 mph63%29.92 "Hg5 mi
5:00 AM59 °FClear.2 mph68%29.92 "Hg10 mi
4:00 AM64 °FClear.No wind56%29.92 "Hg10 mi
3:00 AM64 °FClear.No wind56%29.95 "Hg10 mi
2:00 AM68 °FClear.2 mph53%29.95 "Hg10 mi
1:00 AM70 °FPassing clouds.3 mph46%29.95 "HgN/A
12:00 AM70 °FPassing clouds.6 mph46%29.98 "HgN/A
11:00 PM
Sat, Feb 13
72 °FClear.8 mph44%29.98 "Hg10 mi
10:00 PM75 °FClear.15 mph39%29.95 "Hg10 mi
9:00 PM75 °FClear.15 mph36%29.92 "Hg10 mi
8:00 PM81 °FSunny.21 mph30%29.92 "Hg10 mi
7:00 PM86 °FSunny.16 mph24%29.92 "Hg10 mi
6:00 PM86 °FPassing clouds.15 mph20%29.92 "HgN/A
Weather by CustomWeather, © 2016

See weather overviewHow to use our weather pages